TimeCDT,TemperatureF,Dew PointF,Humidity,Sea Level PressureIn,VisibilityMPH,Wind Direction,Wind SpeedMPH,Gust SpeedMPH,PrecipitationIn,Events,Conditions,WindDirDegrees,DateUTC
12:13 AM,53.6,46.4,77,29.34,10.0,SE,6.9,-,N/A,,Clear,130,2012-10-17 05:13:00
12:33 AM,51.8,46.4,82,29.33,10.0,SE,6.9,-,N/A,,Clear,130,2012-10-17 05:33:00
12:54 AM,51.8,46.4,82,29.32,10.0,ESE,9.2,-,N/A,,Clear,110,2012-10-17 05:54:00
1:13 AM,53.6,46.4,77,29.31,10.0,ESE,9.2,-,N/A,,Clear,120,2012-10-17 06:13:00
1:54 AM,51.8,46.4,82,29.31,10.0,SE,8.1,-,N/A,,Clear,140,2012-10-17 06:54:00
2:13 AM,51.8,46.4,82,29.30,10.0,SE,8.1,-,N/A,,Clear,130,2012-10-17 07:13:00
2:33 AM,51.8,46.4,82,29.29,10.0,ESE,6.9,-,N/A,,Clear,120,2012-10-17 07:33:00
2:53 AM,51.8,46.4,82,29.28,10.0,ESE,5.8,-,N/A,,Clear,120,2012-10-17 07:53:00
3:13 AM,51.8,46.4,82,29.28,10.0,ESE,4.6,-,N/A,,Scattered Clouds,120,2012-10-17 08:13:00
3:53 AM,51.8,46.4,82,29.24,10.0,East,5.8,-,N/A,,Mostly Cloudy,100,2012-10-17 08:53:00
4:13 AM,51.8,46.4,82,29.22,10.0,East,5.8,-,N/A,,Mostly Cloudy,80,2012-10-17 09:13:00
4:34 AM,51.8,46.4,82,29.22,10.0,East,8.1,-,N/A,,Mostly Cloudy,90,2012-10-17 09:34:00
4:53 AM,51.8,46.4,82,29.20,10.0,East,8.1,-,N/A,,Mostly Cloudy,100,2012-10-17 09:53:00
5:13 AM,51.8,46.4,82,29.20,10.0,East,5.8,-,N/A,,Overcast,90,2012-10-17 10:13:00
5:34 AM,51.8,48.2,88,29.19,10.0,East,5.8,-,N/A,,Overcast,80,2012-10-17 10:34:00
5:53 AM,51.8,48.2,88,29.19,7.0,ENE,5.8,-,0.01,Rain,Light Rain,60,2012-10-17 10:53:00
6:13 AM,51.8,48.2,88,29.16,7.0,NE,8.1,-,0.01,Rain,Light Rain,40,2012-10-17 11:13:00
6:34 AM,51.8,48.2,88,29.15,7.0,NNE,6.9,-,0.02,,Drizzle,20,2012-10-17 11:34:00
6:53 AM,50.0,48.2,94,29.14,5.0,NE,9.2,-,0.02,,Light Drizzle,50,2012-10-17 11:53:00
7:13 AM,51.8,48.2,88,29.14,5.0,NNE,9.2,-,N/A,,Overcast,20,2012-10-17 12:13:00
7:34 AM,51.8,48.2,88,29.13,5.0,North,8.1,-,N/A,,Overcast,10,2012-10-17 12:34:00
7:53 AM,51.8,48.2,88,29.14,5.0,North,6.9,-,N/A,Rain,Light Rain,350,2012-10-17 12:53:00
8:13 AM,51.8,48.2,88,29.13,5.0,North,6.9,-,N/A,,Overcast,350,2012-10-17 13:13:00
8:34 AM,51.8,48.2,88,29.13,4.0,North,6.9,-,N/A,,Mostly Cloudy,350,2012-10-17 13:34:00
8:53 AM,51.8,48.2,88,29.13,4.0,North,5.8,-,N/A,,Mostly Cloudy,350,2012-10-17 13:53:00
9:13 AM,51.8,50.0,94,29.12,4.0,North,8.1,-,N/A,,Scattered Clouds,350,2012-10-17 14:13:00
9:34 AM,51.8,50.0,94,29.12,4.0,WNW,9.2,-,N/A,,Mostly Cloudy,300,2012-10-17 14:34:00
9:53 AM,51.8,50.0,94,29.11,4.0,WNW,8.1,-,N/A,Rain,Rain,300,2012-10-17 14:53:00
10:13 AM,51.8,51.8,100,29.11,7.0,West,12.7,-,0.01,Rain,Light Rain,280,2012-10-17 15:13:00
10:34 AM,51.8,50.0,94,29.12,3.0,West,21.9,33.4,0.04,Rain,Rain,280,2012-10-17 15:34:00
10:53 AM,50.0,48.2,94,29.12,10.0,West,28.8,36.8,0.05,Rain,Light Rain,280,2012-10-17 15:53:00
11:13 AM,50.0,48.2,94,29.13,7.0,West,25.3,35.7,N/A,,Light Drizzle,270,2012-10-17 16:13:00
11:34 AM,48.2,46.4,93,29.13,10.0,West,23.0,32.2,N/A,,Overcast,280,2012-10-17 16:34:00
11:53 AM,48.2,46.4,93,29.15,10.0,West,24.2,33.4,N/A,,Overcast,280,2012-10-17 16:53:00
12:13 PM,48.2,46.4,93,29.18,10.0,West,21.9,29.9,N/A,,Overcast,260,2012-10-17 17:13:00
12:34 PM,48.2,46.4,93,29.17,10.0,West,19.6,27.6,N/A,,Overcast,270,2012-10-17 17:34:00
12:53 PM,48.2,46.4,93,29.19,10.0,West,17.3,27.6,N/A,,Overcast,260,2012-10-17 17:53:00
1:13 PM,48.2,44.6,87,29.19,10.0,West,21.9,26.5,N/A,,Overcast,260,2012-10-17 18:13:00
1:33 PM,48.2,44.6,87,29.19,10.0,West,20.7,26.5,N/A,,Overcast,260,2012-10-17 18:33:00
1:53 PM,50.0,44.6,82,29.19,10.0,West,17.3,27.6,N/A,,Overcast,260,2012-10-17 18:53:00
2:14 PM,50.0,44.6,82,29.19,10.0,West,16.1,23.0,N/A,,Overcast,260,2012-10-17 19:14:00
2:33 PM,51.8,46.4,82,29.19,10.0,WSW,17.3,20.7,N/A,,Mostly Cloudy,250,2012-10-17 19:33:00
2:53 PM,51.8,46.4,82,29.19,10.0,WSW,17.3,21.9,N/A,,Mostly Cloudy,250,2012-10-17 19:53:00
3:13 PM,53.6,46.4,77,29.19,10.0,WSW,13.8,-,N/A,,Mostly Cloudy,250,2012-10-17 20:13:00
3:33 PM,51.8,46.4,82,29.20,10.0,West,15.0,-,N/A,,Mostly Cloudy,260,2012-10-17 20:33:00
3:54 PM,50.0,46.4,87,29.21,5.0,WSW,16.1,-,N/A,Rain,Light Rain,250,2012-10-17 20:54:00
4:13 PM,48.2,46.4,93,29.21,10.0,West,20.7,24.2,N/A,,Overcast,270,2012-10-17 21:13:00
4:33 PM,46.4,46.4,100,29.23,3.0,West,15.0,-,0.01,Rain,Light Rain,270,2012-10-17 21:33:00
4:54 PM,46.4,44.6,93,29.23,4.0,West,18.4,26.5,0.02,,Overcast,270,2012-10-17 21:54:00
5:13 PM,44.6,44.6,100,29.23,4.0,West,20.7,25.3,N/A,,Overcast,270,2012-10-17 22:13:00
5:33 PM,44.6,42.8,93,29.25,10.0,West,16.1,28.8,N/A,,Overcast,270,2012-10-17 22:33:00
5:54 PM,44.6,42.8,93,29.25,10.0,West,17.3,27.6,N/A,,Overcast,270,2012-10-17 22:54:00
6:13 PM,44.6,42.8,93,29.25,10.0,West,18.4,-,N/A,,Overcast,270,2012-10-17 23:13:00
6:33 PM,44.6,42.8,93,29.26,10.0,West,20.7,25.3,N/A,,Overcast,260,2012-10-17 23:33:00
6:54 PM,44.6,42.8,93,29.27,7.0,West,15.0,21.9,N/A,,Overcast,260,2012-10-17 23:54:00
7:13 PM,42.8,42.8,100,29.28,7.0,West,16.1,-,N/A,,Overcast,270,2012-10-18 00:13:00
7:33 PM,42.8,42.8,100,29.28,10.0,West,13.8,20.7,N/A,,Overcast,270,2012-10-18 00:33:00
7:54 PM,42.8,41.0,93,29.29,7.0,West,13.8,19.6,N/A,,Overcast,270,2012-10-18 00:54:00
8:13 PM,42.8,41.0,93,29.29,10.0,West,15.0,19.6,N/A,,Light Drizzle,270,2012-10-18 01:13:00
8:33 PM,42.8,41.0,93,29.28,10.0,West,15.0,19.6,0.02,Rain,Light Rain,270,2012-10-18 01:33:00
8:54 PM,42.8,41.0,93,29.29,10.0,West,12.7,-,0.09,Rain,Rain,270,2012-10-18 01:54:00
9:13 PM,42.8,41.0,93,29.28,10.0,West,15.0,23.0,0.02,Rain,Rain,270,2012-10-18 02:13:00
9:33 PM,42.8,42.8,100,29.28,10.0,West,15.0,18.4,0.03,Rain,Light Rain,270,2012-10-18 02:33:00
9:53 PM,42.8,41.0,93,29.28,10.0,West,17.3,24.2,0.04,,Overcast,270,2012-10-18 02:53:00
10:13 PM,42.8,39.2,87,29.27,10.0,West,15.0,26.5,N/A,,Overcast,280,2012-10-18 03:13:00
10:33 PM,42.8,39.2,87,29.27,10.0,West,16.1,28.8,N/A,,Overcast,270,2012-10-18 03:33:00
10:53 PM,42.8,39.2,87,29.26,7.0,West,17.3,20.7,N/A,,Overcast,280,2012-10-18 03:53:00
11:13 PM,42.8,41.0,93,29.25,7.0,West,15.0,-,N/A,,Overcast,270,2012-10-18 04:13:00
11:33 PM,42.8,41.0,93,29.25,10.0,West,17.3,21.9,N/A,,Overcast,270,2012-10-18 04:33:00
11:53 PM,42.8,39.2,87,29.24,10.0,West,16.1,20.7,N/A,,Overcast,280,2012-10-18 04:53:00